レモン彗星

C/2017 E5 ( Lemmon )

English version
Home page
Updated on September 10, 2020

---------------------------------------------------------------------

・ プロフィール

発見日 2017年3月4日
発見光度 20.1等
発見者 G. J. Leonard (Mount Lemmon)

・ 写真集

・ 軌道要素

Epoch 2016 June 21.0 TT = JDT 2457560.5                                         
T 2016 June 10.87268 TT                                 Rudenko                 
q   1.7836582            (2000.0)            P               Q                  
z  +0.0026095      Peri.  306.77793     -0.34664052     -0.86121362             
 +/-0.0000482      Node   206.18962     -0.32968192     -0.25911216             
e   0.9953455      Incl.  122.62973     -0.87815157     +0.43723218             
From 84 observations 2017 Feb. 9-May 28, mean residual 0".7.                    

・ 星図

・ 光度変化

        m1 = 14.0 + 5 logΔ + 10.0 log r(t - 140)

        ※ 灰色の曲線は、12.0 + 5 logΔ + 10.0 log r の光度曲線です。

---------------------------------------------------------------------

軌道要素はM.P.E.C. 2020-R04に掲載されたものです。
星図はステラナビゲータ Ver.10 (アストロアーツ) で作成したものです。
光度グラフはComet for Windowsで作成したものです。

---------------------------------------------------------------------

Copyright(C) Seiichi Yoshida (comet@aerith.net). All rights reserved.